Time,TemperatureF,DewpointF,PressureIn,WindDirection,WindDirectionDegrees,WindSpeedMPH,WindSpeedGustMPH,Humidity,HourlyPrecipIn,Conditions,Clouds,dailyrainin,SoftwareType,DateUTC
2013-08-14 00:01:00,59.0,55.1,30.09,North,360,0.0,6.0,87,0.00,,,0.00,Weather View 32 v70,2013-08-14 04:01:00,
2013-08-14 00:06:00,59.0,55.4,30.09,North,360,2.0,5.0,88,0.00,,,0.00,Weather View 32 v70,2013-08-14 04:06:00,
2013-08-14 00:11:00,59.0,55.8,30.09,North,360,2.0,5.0,89,0.00,,,0.00,Weather View 32 v70,2013-08-14 04:11:00,
2013-08-14 00:16:00,58.0,54.8,30.09,North,360,2.0,5.0,89,0.00,,,0.00,Weather View 32 v70,2013-08-14 04:16:00,
2013-08-14 00:21:00,58.0,54.8,30.09,North,360,1.0,5.0,89,0.00,,,0.00,Weather View 32 v70,2013-08-14 04:21:00,
2013-08-14 00:26:00,58.0,55.4,30.09,North,360,1.0,5.0,91,0.00,,,0.00,Weather View 32 v70,2013-08-14 04:26:00,
2013-08-14 00:31:00,58.0,55.4,30.09,North,360,1.0,5.0,91,0.00,,,0.00,Weather View 32 v70,2013-08-14 04:31:00,
2013-08-14 00:36:00,58.0,55.7,30.09,North,360,1.0,5.0,92,0.00,,,0.00,Weather View 32 v70,2013-08-14 04:36:00,
2013-08-14 00:41:00,58.0,55.7,30.09,North,360,4.0,5.0,92,0.00,,,0.00,Weather View 32 v70,2013-08-14 04:41:00,
2013-08-14 00:46:00,58.0,55.7,30.09,North,360,4.0,5.0,92,0.00,,,0.00,Weather View 32 v70,2013-08-14 04:46:00,
2013-08-14 00:51:00,58.0,56.0,30.09,North,360,1.0,5.0,93,0.00,,,0.00,Weather View 32 v70,2013-08-14 04:51:00,
2013-08-14 00:56:00,58.0,56.0,30.09,North,360,2.0,5.0,93,0.00,,,0.00,Weather View 32 v70,2013-08-14 04:56:00,
2013-08-14 01:01:00,58.0,56.3,30.09,North,360,2.0,5.0,94,0.00,,,0.00,Weather View 32 v70,2013-08-14 05:01:00,
2013-08-14 01:06:00,58.0,56.3,30.09,North,360,2.0,5.0,94,0.00,,,0.00,Weather View 32 v70,2013-08-14 05:06:00,
2013-08-14 01:11:00,57.0,55.6,30.09,North,360,0.0,5.0,95,0.00,,,0.00,Weather View 32 v70,2013-08-14 05:11:00,
2013-08-14 01:16:00,57.0,55.9,30.09,North,360,2.0,5.0,96,0.00,,,0.00,Weather View 32 v70,2013-08-14 05:16:00,
2013-08-14 01:21:00,57.0,55.9,30.09,North,360,1.0,4.0,96,0.00,,,0.00,Weather View 32 v70,2013-08-14 05:21:00,
2013-08-14 01:26:00,57.0,56.2,30.09,North,360,2.0,4.0,97,0.00,,,0.00,Weather View 32 v70,2013-08-14 05:26:00,
2013-08-14 01:31:00,57.0,56.4,30.09,North,360,0.0,4.0,98,0.00,,,0.00,Weather View 32 v70,2013-08-14 05:31:00,
2013-08-14 01:36:00,57.0,56.7,30.09,North,360,1.0,4.0,99,0.00,,,0.00,Weather View 32 v70,2013-08-14 05:36:00,
2013-08-14 01:41:00,56.0,55.7,30.09,North,360,1.0,4.0,99,0.00,,,0.00,Weather View 32 v70,2013-08-14 05:41:00,
2013-08-14 01:46:00,56.0,56.0,30.09,North,360,2.0,4.0,100,0.00,,,0.00,Weather View 32 v70,2013-08-14 05:46:00,
2013-08-14 01:51:00,56.0,56.0,30.09,North,360,1.0,4.0,100,0.00,,,0.00,Weather View 32 v70,2013-08-14 05:51:00,
2013-08-14 01:56:00,56.0,56.0,30.09,NW,315,1.0,4.0,100,0.00,,,0.00,Weather View 32 v70,2013-08-14 05:56:00,
2013-08-14 02:01:00,56.0,56.0,30.09,NW,315,0.0,3.0,100,0.00,,,0.00,Weather View 32 v70,2013-08-14 06:01:00,
2013-08-14 02:06:00,56.0,56.0,30.09,NW,315,1.0,3.0,100,0.00,,,0.00,Weather View 32 v70,2013-08-14 06:06:00,
2013-08-14 02:11:00,56.0,56.0,30.09,NW,315,2.0,3.0,100,0.00,,,0.00,Weather View 32 v70,2013-08-14 06:11:00,
2013-08-14 02:16:00,56.0,56.0,30.08,NW,315,0.0,3.0,100,0.00,,,0.00,Weather View 32 v70,2013-08-14 06:16:00,
2013-08-14 02:21:00,56.0,56.0,30.08,NW,315,2.0,3.0,100,0.00,,,0.00,Weather View 32 v70,2013-08-14 06:21:00,
2013-08-14 02:26:00,55.0,55.0,30.08,NNW,337,2.0,4.0,100,0.00,,,0.00,Weather View 32 v70,2013-08-14 06:26:00,
2013-08-14 02:31:00,55.0,55.0,30.08,NNW,337,3.0,4.0,100,0.00,,,0.00,Weather View 32 v70,2013-08-14 06:31:00,
2013-08-14 02:36:00,55.0,55.0,30.08,NNW,337,1.0,4.0,100,0.00,,,0.00,Weather View 32 v70,2013-08-14 06:36:00,
2013-08-14 02:41:00,55.0,55.0,30.08,North,360,2.0,5.0,100,0.00,,,0.00,Weather View 32 v70,2013-08-14 06:41:00,
2013-08-14 02:46:00,55.0,55.0,30.08,North,360,0.0,5.0,100,0.00,,,0.00,Weather View 32 v70,2013-08-14 06:46:00,
2013-08-14 02:51:00,55.0,55.0,30.08,North,360,3.0,5.0,100,0.00,,,0.00,Weather View 32 v70,2013-08-14 06:51:00,
2013-08-14 02:56:00,55.0,55.0,30.08,North,360,1.0,5.0,100,0.00,,,0.00,Weather View 32 v70,2013-08-14 06:56:00,
2013-08-14 03:01:00,56.0,56.0,30.08,North,360,3.0,6.0,100,0.00,,,0.00,Weather View 32 v70,2013-08-14 07:01:00,
2013-08-14 03:06:00,56.0,56.0,30.08,North,360,3.0,6.0,100,0.00,,,0.00,Weather View 32 v70,2013-08-14 07:06:00,
2013-08-14 03:11:00,56.0,56.0,30.08,North,360,2.0,6.0,100,0.00,,,0.00,Weather View 32 v70,2013-08-14 07:11:00,
2013-08-14 03:15:00,56.0,56.0,30.08,North,360,2.0,6.0,100,0.00,,,0.00,Weather View 32 v70,2013-08-14 07:15:00,
2013-08-14 03:16:00,56.0,56.0,30.08,North,360,2.0,6.0,100,0.00,,,0.00,Weather View 32 v70,2013-08-14 07:16:00,
2013-08-14 05:55:00,51.0,49.9,30.10,North,360,0.0,0.0,96,0.00,,,0.00,Weather View 32 v70,2013-08-14 09:55:00,
2013-08-14 06:00:00,51.0,49.9,30.10,North,360,0.0,0.0,96,0.00,,,0.00,Weather View 32 v70,2013-08-14 10:00:00,
2013-08-14 06:05:00,50.0,48.9,30.10,North,360,0.0,0.0,96,0.00,,,0.00,Weather View 32 v70,2013-08-14 10:05:00,
2013-08-14 06:10:00,50.0,48.9,30.10,North,360,0.0,0.0,96,0.00,,,0.00,Weather View 32 v70,2013-08-14 10:10:00,
2013-08-14 06:15:00,50.0,48.6,30.10,North,360,0.0,0.0,95,0.00,,,0.00,Weather View 32 v70,2013-08-14 10:15:00,
2013-08-14 06:20:00,50.0,48.6,30.10,North,360,0.0,0.0,95,0.00,,,0.00,Weather View 32 v70,2013-08-14 10:20:00,
2013-08-14 06:25:00,50.0,48.6,30.10,North,360,0.0,0.0,95,0.00,,,0.00,Weather View 32 v70,2013-08-14 10:25:00,
2013-08-14 06:30:00,49.0,47.6,30.10,North,360,0.0,0.0,95,0.00,,,0.00,Weather View 32 v70,2013-08-14 10:30:00,
2013-08-14 06:35:00,49.0,47.6,30.11,North,360,0.0,0.0,95,0.00,,,0.00,Weather View 32 v70,2013-08-14 10:35:00,
2013-08-14 06:40:00,49.0,47.6,30.11,North,360,0.0,0.0,95,0.00,,,0.00,Weather View 32 v70,2013-08-14 10:40:00,
2013-08-14 06:45:00,49.0,47.3,30.11,North,360,0.0,0.0,94,0.00,,,0.00,Weather View 32 v70,2013-08-14 10:45:00,
2013-08-14 06:50:00,49.0,47.3,30.11,North,360,0.0,0.0,94,0.00,,,0.00,Weather View 32 v70,2013-08-14 10:50:00,
2013-08-14 06:55:00,49.0,47.3,30.11,North,360,0.0,0.0,94,0.00,,,0.00,Weather View 32 v70,2013-08-14 10:55:00,
2013-08-14 07:00:00,49.0,47.3,30.11,North,360,0.0,1.0,94,0.00,,,0.00,Weather View 32 v70,2013-08-14 11:00:00,
2013-08-14 07:05:00,49.0,47.3,30.11,North,360,0.0,1.0,94,0.00,,,0.00,Weather View 32 v70,2013-08-14 11:05:00,
2013-08-14 07:10:00,49.0,47.6,30.12,North,360,2.0,2.0,95,0.00,,,0.00,Weather View 32 v70,2013-08-14 11:10:00,
2013-08-14 07:15:00,50.0,49.2,30.12,North,360,0.0,2.0,97,0.00,,,0.00,Weather View 32 v70,2013-08-14 11:15:00,
2013-08-14 07:20:00,50.0,48.6,30.12,North,360,0.0,2.0,95,0.00,,,0.00,Weather View 32 v70,2013-08-14 11:20:00,
2013-08-14 07:25:00,50.0,49.5,30.12,North,360,1.0,2.0,98,0.00,,,0.00,Weather View 32 v70,2013-08-14 11:25:00,
2013-08-14 07:30:00,50.0,49.5,30.12,North,360,1.0,3.0,98,0.00,,,0.00,Weather View 32 v70,2013-08-14 11:30:00,
2013-08-14 07:35:00,51.0,49.6,30.12,North,360,2.0,3.0,95,0.00,,,0.00,Weather View 32 v70,2013-08-14 11:35:00,
2013-08-14 07:40:00,52.0,49.7,30.13,NNE,22,3.0,7.0,92,0.00,,,0.00,Weather View 32 v70,2013-08-14 11:40:00,
2013-08-14 07:45:00,53.0,50.1,30.13,NNE,22,3.0,7.0,90,0.00,,,0.00,Weather View 32 v70,2013-08-14 11:45:00,
2013-08-14 07:50:00,54.0,51.4,30.13,North,360,3.0,7.0,91,0.00,,,0.00,Weather View 32 v70,2013-08-14 11:50:00,
2013-08-14 07:55:00,55.0,53.6,30.13,North,360,2.0,7.0,95,0.00,,,0.00,Weather View 32 v70,2013-08-14 11:55:00,
2013-08-14 08:00:00,56.0,54.3,30.14,North,360,4.0,7.0,94,0.00,,,0.00,Weather View 32 v70,2013-08-14 12:00:00,
2013-08-14 08:05:00,57.0,55.9,30.14,NNE,22,3.0,7.0,96,0.00,,,0.00,Weather View 32 v70,2013-08-14 12:05:00,
2013-08-14 08:10:00,58.0,57.7,30.15,North,360,3.0,7.0,99,0.00,,,0.00,Weather View 32 v70,2013-08-14 12:10:00,
2013-08-14 08:15:00,58.0,57.7,30.15,NNE,22,3.0,7.0,99,0.00,,,0.00,Weather View 32 v70,2013-08-14 12:15:00,
2013-08-14 08:20:00,59.0,58.1,30.16,NNE,22,3.0,7.0,97,0.00,,,0.00,Weather View 32 v70,2013-08-14 12:20:00,
2013-08-14 08:25:00,60.0,59.1,30.16,North,360,1.0,7.0,97,0.00,,,0.00,Weather View 32 v70,2013-08-14 12:25:00,
2013-08-14 08:30:00,60.0,58.6,30.16,North,360,0.0,7.0,95,0.00,,,0.00,Weather View 32 v70,2013-08-14 12:30:00,
2013-08-14 08:35:00,61.0,58.7,30.17,North,360,5.0,7.0,92,0.00,,,0.00,Weather View 32 v70,2013-08-14 12:35:00,
2013-08-14 08:40:00,61.0,57.7,30.17,NE,45,5.0,7.0,89,0.00,,,0.00,Weather View 32 v70,2013-08-14 12:40:00,
2013-08-14 08:45:00,62.0,58.1,30.17,NNE,22,3.0,7.0,87,0.00,,,0.00,Weather View 32 v70,2013-08-14 12:45:00,
2013-08-14 08:50:00,62.0,57.4,30.17,North,360,4.0,7.0,85,0.00,,,0.00,Weather View 32 v70,2013-08-14 12:50:00,
2013-08-14 08:55:00,63.0,56.4,30.18,North,360,5.0,8.0,79,0.00,,,0.00,Weather View 32 v70,2013-08-14 12:55:00,
2013-08-14 09:00:00,63.0,56.4,30.18,NNE,22,7.0,8.0,79,0.00,,,0.00,Weather View 32 v70,2013-08-14 13:00:00,
2013-08-14 09:05:00,63.0,56.0,30.18,ENE,67,1.0,8.0,78,0.00,,,0.00,Weather View 32 v70,2013-08-14 13:05:00,
2013-08-14 09:10:00,63.0,55.3,30.18,NE,45,3.0,8.0,76,0.00,,,0.00,Weather View 32 v70,2013-08-14 13:10:00,
2013-08-14 09:15:00,63.0,54.9,30.18,North,360,5.0,8.0,75,0.00,,,0.00,Weather View 32 v70,2013-08-14 13:15:00,
2013-08-14 09:20:00,64.0,56.3,30.18,North,360,1.0,8.0,76,0.00,,,0.00,Weather View 32 v70,2013-08-14 13:20:00,
2013-08-14 09:25:00,64.0,54.8,30.18,North,360,2.0,9.0,72,0.00,,,0.00,Weather View 32 v70,2013-08-14 13:25:00,
2013-08-14 09:30:00,65.0,54.9,30.19,NE,45,4.0,9.0,70,0.00,,,0.00,Weather View 32 v70,2013-08-14 13:30:00,
2013-08-14 09:35:00,65.0,54.9,30.19,NNE,22,1.0,9.0,70,0.00,,,0.00,Weather View 32 v70,2013-08-14 13:35:00,
2013-08-14 09:40:00,66.0,54.7,30.19,NE,45,1.0,9.0,67,0.00,,,0.00,Weather View 32 v70,2013-08-14 13:40:00,
2013-08-14 09:45:00,66.0,54.7,30.20,NE,45,2.0,9.0,67,0.00,,,0.00,Weather View 32 v70,2013-08-14 13:45:00,
2013-08-14 09:50:00,66.0,54.3,30.20,NNE,22,7.0,9.0,66,0.00,,,0.00,Weather View 32 v70,2013-08-14 13:50:00,
2013-08-14 09:55:00,67.0,53.5,30.19,North,360,5.0,9.0,62,0.00,,,0.00,Weather View 32 v70,2013-08-14 13:55:00,
2013-08-14 10:00:00,67.0,54.4,30.20,NE,45,4.0,9.0,64,0.00,,,0.00,Weather View 32 v70,2013-08-14 14:00:00,
2013-08-14 10:05:00,67.0,53.5,30.19,East,90,4.0,9.0,62,0.00,,,0.00,Weather View 32 v70,2013-08-14 14:05:00,
2013-08-14 10:10:00,68.0,53.6,30.20,NNE,22,4.0,9.0,60,0.00,,,0.00,Weather View 32 v70,2013-08-14 14:10:00,
2013-08-14 10:15:00,68.0,53.1,30.20,NW,315,3.0,9.0,59,0.00,,,0.00,Weather View 32 v70,2013-08-14 14:15:00,
2013-08-14 10:20:00,68.0,53.6,30.20,NNE,22,5.0,9.0,60,0.00,,,0.00,Weather View 32 v70,2013-08-14 14:20:00,
2013-08-14 10:25:00,68.0,52.6,30.20,North,360,5.0,9.0,58,0.00,,,0.00,Weather View 32 v70,2013-08-14 14:25:00,
2013-08-14 10:30:00,69.0,53.1,30.20,NNE,22,3.0,9.0,57,0.00,,,0.00,Weather View 32 v70,2013-08-14 14:30:00,
2013-08-14 10:35:00,69.0,51.6,30.20,North,360,5.0,9.0,54,0.00,,,0.00,Weather View 32 v70,2013-08-14 14:35:00,
2013-08-14 10:40:00,69.0,52.1,30.21,North,360,9.0,9.0,55,0.00,,,0.00,Weather View 32 v70,2013-08-14 14:40:00,
2013-08-14 10:45:00,69.0,51.1,30.20,NNE,22,5.0,10.0,53,0.00,,,0.00,Weather View 32 v70,2013-08-14 14:45:00,
2013-08-14 10:50:00,69.0,51.1,30.21,NE,45,7.0,10.0,53,0.00,,,0.00,Weather View 32 v70,2013-08-14 14:50:00,
2013-08-14 10:55:00,69.0,51.1,30.21,NE,45,6.0,10.0,53,0.00,,,0.00,Weather View 32 v70,2013-08-14 14:55:00,
2013-08-14 11:00:00,69.0,51.6,30.21,North,360,3.0,10.0,54,0.00,,,0.00,Weather View 32 v70,2013-08-14 15:00:00,
2013-08-14 11:05:00,70.0,52.0,30.21,NE,45,7.0,10.0,53,0.00,,,0.00,Weather View 32 v70,2013-08-14 15:05:00,
2013-08-14 11:10:00,70.0,51.5,30.21,NE,45,2.0,10.0,52,0.00,,,0.00,Weather View 32 v70,2013-08-14 15:10:00,
2013-08-14 11:15:00,70.0,52.5,30.21,North,360,1.0,10.0,54,0.00,,,0.00,Weather View 32 v70,2013-08-14 15:15:00,
2013-08-14 11:20:00,71.0,51.4,30.21,NNE,22,6.0,10.0,50,0.00,,,0.00,Weather View 32 v70,2013-08-14 15:20:00,
2013-08-14 11:25:00,71.0,50.3,30.21,NNE,22,3.0,10.0,48,0.00,,,0.00,Weather View 32 v70,2013-08-14 15:25:00,
2013-08-14 11:30:00,71.0,49.7,30.21,North,360,4.0,10.0,47,0.00,,,0.00,Weather View 32 v70,2013-08-14 15:30:00,
2013-08-14 11:35:00,71.0,50.3,30.21,NE,45,5.0,10.0,48,0.00,,,0.00,Weather View 32 v70,2013-08-14 15:35:00,
2013-08-14 11:40:00,70.0,49.4,30.21,NNE,22,2.0,10.0,48,0.00,,,0.00,Weather View 32 v70,2013-08-14 15:40:00,
2013-08-14 11:45:00,71.0,50.3,30.21,NNE,22,3.0,10.0,48,0.00,,,0.00,Weather View 32 v70,2013-08-14 15:45:00,
2013-08-14 11:50:00,71.0,50.3,30.21,East,90,0.0,10.0,48,0.00,,,0.00,Weather View 32 v70,2013-08-14 15:50:00,
2013-08-14 11:55:00,71.0,47.3,30.21,North,360,4.0,10.0,43,0.00,,,0.00,Weather View 32 v70,2013-08-14 15:55:00,
2013-08-14 12:00:00,71.0,48.5,30.21,North,360,5.0,10.0,45,0.00,,,0.00,Weather View 32 v70,2013-08-14 16:00:00,
2013-08-14 12:05:00,71.0,49.1,30.21,North,360,3.0,13.0,46,0.00,,,0.00,Weather View 32 v70,2013-08-14 16:05:00,
2013-08-14 12:10:00,71.0,50.3,30.21,East,90,0.0,13.0,48,0.00,,,0.00,Weather View 32 v70,2013-08-14 16:10:00,
2013-08-14 12:15:00,71.0,49.7,30.20,North,360,6.0,13.0,47,0.00,,,0.00,Weather View 32 v70,2013-08-14 16:15:00,
2013-08-14 12:25:00,72.0,50.0,30.20,NNW,337,3.0,13.0,46,0.00,,,0.00,Weather View 32 v70,2013-08-14 16:25:00,
2013-08-14 12:35:00,72.0,50.0,30.21,NE,45,4.0,13.0,46,0.00,,,0.00,Weather View 32 v70,2013-08-14 16:35:00,
2013-08-14 12:40:00,72.0,51.2,30.21,East,90,4.0,13.0,48,0.00,,,0.00,Weather View 32 v70,2013-08-14 16:40:00,
2013-08-14 12:50:00,72.0,50.6,30.21,North,360,5.0,13.0,47,0.00,,,0.00,Weather View 32 v70,2013-08-14 16:50:00,
2013-08-14 12:55:00,72.0,50.0,30.21,North,360,6.0,13.0,46,0.00,,,0.00,Weather View 32 v70,2013-08-14 16:55:00,
2013-08-14 13:05:00,73.0,50.9,30.21,North,360,5.0,10.0,46,0.00,,,0.00,Weather View 32 v70,2013-08-14 17:05:00,
2013-08-14 13:10:00,73.0,50.3,30.20,NNE,22,6.0,10.0,45,0.00,,,0.00,Weather View 32 v70,2013-08-14 17:10:00,
2013-08-14 13:15:00,72.0,50.6,30.20,NNE,22,2.0,10.0,47,0.00,,,0.00,Weather View 32 v70,2013-08-14 17:15:00,
2013-08-14 13:20:00,73.0,51.5,30.20,North,360,7.0,10.0,47,0.00,,,0.00,Weather View 32 v70,2013-08-14 17:20:00,
2013-08-14 13:25:00,73.0,50.9,30.20,North,360,6.0,11.0,46,0.00,,,0.00,Weather View 32 v70,2013-08-14 17:25:00,
2013-08-14 13:30:00,73.0,50.3,30.20,North,360,3.0,11.0,45,0.00,,,0.00,Weather View 32 v70,2013-08-14 17:30:00,
2013-08-14 13:35:00,73.0,50.9,30.20,South,180,0.0,11.0,46,0.00,,,0.00,Weather View 32 v70,2013-08-14 17:35:00,
2013-08-14 13:40:00,74.0,50.6,30.20,NNE,22,6.0,11.0,44,0.00,,,0.00,Weather View 32 v70,2013-08-14 17:40:00,
2013-08-14 13:45:00,74.0,51.2,30.20,NW,315,4.0,11.0,45,0.00,,,0.00,Weather View 32 v70,2013-08-14 17:45:00,
2013-08-14 13:55:00,73.0,50.3,30.20,SSE,157,1.0,11.0,45,0.00,,,0.00,Weather View 32 v70,2013-08-14 17:55:00,
2013-08-14 14:00:00,74.0,51.8,30.20,North,360,5.0,11.0,46,0.00,,,0.00,Weather View 32 v70,2013-08-14 18:00:00,
2013-08-14 14:05:00,74.0,51.2,30.20,NNE,22,1.0,11.0,45,0.00,,,0.00,Weather View 32 v70,2013-08-14 18:05:00,
2013-08-14 14:15:00,74.0,50.6,30.20,East,90,1.0,11.0,44,0.00,,,0.00,Weather View 32 v70,2013-08-14 18:15:00,
2013-08-14 14:20:00,74.0,50.0,30.20,NNW,337,1.0,11.0,43,0.00,,,0.00,Weather View 32 v70,2013-08-14 18:20:00,
2013-08-14 14:30:00,74.0,50.6,30.19,NE,45,5.0,11.0,44,0.00,,,0.00,Weather View 32 v70,2013-08-14 18:30:00,
2013-08-14 14:35:00,74.0,51.2,30.19,ENE,67,2.0,11.0,45,0.00,,,0.00,Weather View 32 v70,2013-08-14 18:35:00,
2013-08-14 14:45:00,74.0,51.2,30.19,ENE,67,4.0,10.0,45,0.00,,,0.00,Weather View 32 v70,2013-08-14 18:45:00,
2013-08-14 14:50:00,73.0,50.3,30.19,NNE,22,6.0,10.0,45,0.00,,,0.00,Weather View 32 v70,2013-08-14 18:50:00,
2013-08-14 15:00:00,73.0,50.3,30.19,NW,315,7.0,11.0,45,0.00,,,0.00,Weather View 32 v70,2013-08-14 19:00:00,
2013-08-14 15:15:00,74.0,51.2,30.19,North,360,5.0,12.0,45,0.00,,,0.00,Weather View 32 v70,2013-08-14 19:15:00,
2013-08-14 15:20:00,75.0,51.5,30.19,NW,315,1.0,12.0,44,0.00,,,0.00,Weather View 32 v70,2013-08-14 19:20:00,
2013-08-14 15:35:00,75.0,50.3,30.19,NNE,22,2.0,12.0,42,0.00,,,0.00,Weather View 32 v70,2013-08-14 19:35:00,
2013-08-14 15:45:00,74.0,50.0,30.19,NNE,22,6.0,12.0,43,0.00,,,0.00,Weather View 32 v70,2013-08-14 19:45:00,
2013-08-14 15:50:00,74.0,50.0,30.19,NW,315,3.0,12.0,43,0.00,,,0.00,Weather View 32 v70,2013-08-14 19:50:00,
2013-08-14 15:55:00,73.0,49.7,30.19,North,360,4.0,12.0,44,0.00,,,0.00,Weather View 32 v70,2013-08-14 19:55:00,
2013-08-14 16:00:00,73.0,50.3,30.19,North,360,6.0,12.0,45,0.00,,,0.00,Weather View 32 v70,2013-08-14 20:00:00,
2013-08-14 16:10:00,72.0,50.0,30.18,NE,45,6.0,12.0,46,0.00,,,0.00,Weather View 32 v70,2013-08-14 20:10:00,
2013-08-14 16:15:00,72.0,50.6,30.18,East,90,1.0,11.0,47,0.00,,,0.00,Weather View 32 v70,2013-08-14 20:15:00,
2013-08-14 16:25:00,72.0,50.0,30.18,WNW,292,3.0,11.0,46,0.00,,,0.00,Weather View 32 v70,2013-08-14 20:25:00,
2013-08-14 16:30:00,72.0,51.2,30.18,North,360,5.0,11.0,48,0.00,,,0.00,Weather View 32 v70,2013-08-14 20:30:00,
2013-08-14 16:45:00,71.0,50.3,30.17,North,360,7.0,12.0,48,0.00,,,0.00,Weather View 32 v70,2013-08-14 20:45:00,
2013-08-14 16:50:00,71.0,50.3,30.17,North,360,3.0,12.0,48,0.00,,,0.00,Weather View 32 v70,2013-08-14 20:50:00,
2013-08-14 16:55:00,71.0,49.7,30.17,NE,45,5.0,12.0,47,0.00,,,0.00,Weather View 32 v70,2013-08-14 20:55:00,
2013-08-14 17:05:00,71.0,50.8,30.16,North,360,3.0,12.0,49,0.00,,,0.00,Weather View 32 v70,2013-08-14 21:05:00,
2013-08-14 17:10:00,71.0,50.3,30.16,NNE,22,5.0,12.0,48,0.00,,,0.00,Weather View 32 v70,2013-08-14 21:10:00,
2013-08-14 17:15:00,72.0,51.2,30.16,NNE,22,5.0,12.0,48,0.00,,,0.00,Weather View 32 v70,2013-08-14 21:15:00,
2013-08-14 17:20:00,71.0,50.3,30.16,NE,45,4.0,12.0,48,0.00,,,0.00,Weather View 32 v70,2013-08-14 21:20:00,
2013-08-14 17:25:00,72.0,51.2,30.16,NNW,337,3.0,12.0,48,0.00,,,0.00,Weather View 32 v70,2013-08-14 21:25:00,
2013-08-14 17:30:00,71.0,50.3,30.16,North,360,6.0,12.0,48,0.00,,,0.00,Weather View 32 v70,2013-08-14 21:30:00,
2013-08-14 17:40:00,71.0,50.8,30.16,NE,45,5.0,12.0,49,0.00,,,0.00,Weather View 32 v70,2013-08-14 21:40:00,
2013-08-14 17:45:00,71.0,51.4,30.16,NE,45,7.0,10.0,50,0.00,,,0.00,Weather View 32 v70,2013-08-14 21:45:00,
2013-08-14 17:50:00,71.0,51.4,30.16,North,360,3.0,10.0,50,0.00,,,0.00,Weather View 32 v70,2013-08-14 21:50:00,
2013-08-14 18:00:00,71.0,50.8,30.16,NNE,22,4.0,10.0,49,0.00,,,0.00,Weather View 32 v70,2013-08-14 22:00:00,
2013-08-14 18:10:00,71.0,50.8,30.16,North,360,4.0,12.0,49,0.00,,,0.00,Weather View 32 v70,2013-08-14 22:10:00,
2013-08-14 18:15:00,71.0,51.4,30.16,East,90,5.0,12.0,50,0.00,,,0.00,Weather View 32 v70,2013-08-14 22:15:00,
2013-08-14 18:20:00,71.0,50.8,30.16,North,360,3.0,12.0,49,0.00,,,0.00,Weather View 32 v70,2013-08-14 22:20:00,
2013-08-14 18:25:00,71.0,50.8,30.16,NW,315,3.0,12.0,49,0.00,,,0.00,Weather View 32 v70,2013-08-14 22:25:00,
2013-08-14 18:30:00,71.0,50.8,30.16,North,360,1.0,12.0,49,0.00,,,0.00,Weather View 32 v70,2013-08-14 22:30:00,
2013-08-14 18:40:00,71.0,50.8,30.16,North,360,0.0,12.0,49,0.00,,,0.00,Weather View 32 v70,2013-08-14 22:40:00,
2013-08-14 18:50:00,71.0,50.3,30.16,NNE,22,3.0,12.0,48,0.00,,,0.00,Weather View 32 v70,2013-08-14 22:50:00,
2013-08-14 18:55:00,71.0,51.4,30.16,NE,45,6.0,12.0,50,0.00,,,0.00,Weather View 32 v70,2013-08-14 22:55:00,
2013-08-14 19:00:00,71.0,51.9,30.15,NNE,22,7.0,12.0,51,0.00,,,0.00,Weather View 32 v70,2013-08-14 23:00:00,
2013-08-14 19:10:00,70.0,50.5,30.16,NNE,22,3.0,9.0,50,0.00,,,0.00,Weather View 32 v70,2013-08-14 23:10:00,
2013-08-14 19:20:00,70.0,50.5,30.16,NE,45,3.0,9.0,50,0.00,,,0.00,Weather View 32 v70,2013-08-14 23:20:00,
2013-08-14 19:25:00,70.0,50.5,30.15,NE,45,5.0,9.0,50,0.00,,,0.00,Weather View 32 v70,2013-08-14 23:25:00,
2013-08-14 19:30:00,71.0,51.4,30.16,East,90,2.0,9.0,50,0.00,,,0.00,Weather View 32 v70,2013-08-14 23:30:00,
2013-08-14 19:35:00,71.0,50.3,30.16,ENE,67,1.0,9.0,48,0.00,,,0.00,Weather View 32 v70,2013-08-14 23:35:00,
2013-08-14 19:45:00,70.0,50.5,30.16,East,90,2.0,9.0,50,0.00,,,0.00,Weather View 32 v70,2013-08-14 23:45:00,
2013-08-14 19:50:00,70.0,51.0,30.16,NE,45,3.0,9.0,51,0.00,,,0.00,Weather View 32 v70,2013-08-14 23:50:00,
2013-08-14 19:55:00,69.0,51.1,30.15,NE,45,3.0,9.0,53,0.00,,,0.00,Weather View 32 v70,2013-08-14 23:55:00,
2013-08-14 20:00:00,69.0,51.1,30.15,NE,45,2.0,9.0,53,0.00,,,0.00,Weather View 32 v70,2013-08-15 00:00:00,
2013-08-14 20:10:00,68.0,51.2,30.15,NE,45,3.0,8.0,55,0.00,,,0.00,Weather View 32 v70,2013-08-15 00:10:00,
2013-08-14 20:20:00,68.0,51.7,30.15,NE,45,3.0,8.0,56,0.00,,,0.00,Weather View 32 v70,2013-08-15 00:20:00,
2013-08-14 20:25:00,67.0,51.7,30.15,East,90,0.0,8.0,58,0.00,,,0.00,Weather View 32 v70,2013-08-15 00:25:00,
2013-08-14 20:30:00,67.0,52.2,30.15,NE,45,1.0,8.0,59,0.00,,,0.00,Weather View 32 v70,2013-08-15 00:30:00,
2013-08-14 20:35:00,67.0,52.2,30.14,NE,45,3.0,8.0,59,0.00,,,0.00,Weather View 32 v70,2013-08-15 00:35:00,
2013-08-14 20:40:00,67.0,52.2,30.15,ENE,67,1.0,8.0,59,0.00,,,0.00,Weather View 32 v70,2013-08-15 00:40:00,
2013-08-14 20:45:00,66.0,51.2,30.14,ENE,67,0.0,8.0,59,0.00,,,0.00,Weather View 32 v70,2013-08-15 00:45:00,
2013-08-14 20:55:00,65.0,52.1,30.14,NE,45,0.0,6.0,63,0.00,,,0.00,Weather View 32 v70,2013-08-15 00:55:00,
2013-08-14 21:00:00,65.0,52.1,30.14,NE,45,1.0,6.0,63,0.00,,,0.00,Weather View 32 v70,2013-08-15 01:00:00,
2013-08-14 21:10:00,65.0,52.5,30.15,NE,45,0.0,6.0,64,0.00,,,0.00,Weather View 32 v70,2013-08-15 01:10:00,
2013-08-14 21:15:00,64.0,51.5,30.15,NE,45,3.0,6.0,64,0.00,,,0.00,Weather View 32 v70,2013-08-15 01:15:00,
2013-08-14 21:20:00,64.0,52.0,30.15,NE,45,0.0,6.0,65,0.00,,,0.00,Weather View 32 v70,2013-08-15 01:20:00,
2013-08-14 21:35:00,63.0,52.6,30.15,NE,45,2.0,6.0,69,0.00,,,0.00,Weather View 32 v70,2013-08-15 01:35:00,
2013-08-14 21:40:00,63.0,52.6,30.15,NE,45,0.0,6.0,69,0.00,,,0.00,Weather View 32 v70,2013-08-15 01:40:00,
2013-08-14 21:50:00,63.0,53.8,30.15,ENE,67,1.0,6.0,72,0.00,,,0.00,Weather View 32 v70,2013-08-15 01:50:00,
2013-08-14 21:55:00,63.0,53.8,30.15,ENE,67,0.0,6.0,72,0.00,,,0.00,Weather View 32 v70,2013-08-15 01:55:00,
2013-08-14 22:00:00,63.0,53.8,30.15,ENE,67,0.0,6.0,72,0.00,,,0.00,Weather View 32 v70,2013-08-15 02:00:00,
2013-08-14 22:05:00,62.0,53.6,30.15,ENE,67,0.0,5.0,74,0.00,,,0.00,Weather View 32 v70,2013-08-15 02:05:00,
2013-08-14 22:10:00,62.0,53.2,30.15,ENE,67,0.0,5.0,73,0.00,,,0.00,Weather View 32 v70,2013-08-15 02:10:00,
2013-08-14 22:15:00,62.0,53.6,30.15,ENE,67,0.0,5.0,74,0.00,,,0.00,Weather View 32 v70,2013-08-15 02:15:00,
2013-08-14 22:20:00,62.0,53.6,30.15,NE,45,1.0,5.0,74,0.00,,,0.00,Weather View 32 v70,2013-08-15 02:20:00,
2013-08-14 22:30:00,62.0,53.6,30.15,NE,45,0.0,5.0,74,0.00,,,0.00,Weather View 32 v70,2013-08-15 02:30:00,
2013-08-14 22:35:00,62.0,53.6,30.15,ENE,67,1.0,6.0,74,0.00,,,0.00,Weather View 32 v70,2013-08-15 02:35:00,
2013-08-14 22:45:00,62.0,53.6,30.15,East,90,1.0,6.0,74,0.00,,,0.00,Weather View 32 v70,2013-08-15 02:45:00,
2013-08-14 22:50:00,62.0,54.0,30.15,ENE,67,4.0,6.0,75,0.00,,,0.00,Weather View 32 v70,2013-08-15 02:50:00,
2013-08-14 22:55:00,62.0,54.0,30.15,NE,45,1.0,6.0,75,0.00,,,0.00,Weather View 32 v70,2013-08-15 02:55:00,
2013-08-14 23:05:00,61.0,53.0,30.15,ENE,67,0.0,6.0,75,0.00,,,0.00,Weather View 32 v70,2013-08-15 03:05:00,
2013-08-14 23:15:00,61.0,53.0,30.15,NE,45,4.0,6.0,75,0.00,,,0.00,Weather View 32 v70,2013-08-15 03:15:00,
2013-08-14 23:20:00,61.0,53.0,30.15,East,90,3.0,7.0,75,0.00,,,0.00,Weather View 32 v70,2013-08-15 03:20:00,
2013-08-14 23:25:00,61.0,53.0,30.16,ENE,67,1.0,7.0,75,0.00,,,0.00,Weather View 32 v70,2013-08-15 03:25:00,
2013-08-14 23:30:00,61.0,53.4,30.15,East,90,2.0,7.0,76,0.00,,,0.00,Weather View 32 v70,2013-08-15 03:30:00,
2013-08-14 23:40:00,61.0,54.1,30.15,ENE,67,2.0,7.0,78,0.00,,,0.00,Weather View 32 v70,2013-08-15 03:40:00,
2013-08-14 23:45:00,61.0,54.4,30.15,ENE,67,2.0,7.0,79,0.00,,,0.00,Weather View 32 v70,2013-08-15 03:45:00,
2013-08-14 23:55:00,60.0,53.5,30.15,NNE,22,1.0,7.0,79,0.00,,,0.00,Weather View 32 v70,2013-08-15 03:55:00,